Location: ?ern� Novina
(50.6762°N, 14.8696°E)
Time: 12:50:43
(UTC+00:00)

ATLAS 5 CENTAUR R/B - Pass Details

Date: 03 March 2021
Orbit: 254 x 14189 km, 60.8° (Epoch: 16 April)

Event Time Altitude Azimuth Distance (km) Brightness Sun altitude
Rises 17:08:32 0° 232° (SW) 9,914 9.3 -4.5°
Reaches altitude 10° 17:18:01 10° 235° (SW) 6,645 8.3 -5.9°
Maximum altitude 17:32:17 70° 320° (NW) 1,117 3.5 -8.2°
Drops below altitude 10° 17:36:08 10° 45° (NE) 1,917 4.2 -8.8°
Enters shadow 17:36:50 - 47° (NE) 2,224 4.5 -8.9°
